Location: Kaiser
(34.0939°N, 117.4889°W)
Time: 03:10:39
(UTC+00:00)

Cosmos 1697 Rocket - Pass Details

Date: 29 October 2020
Orbit: 831 x 845 km, 71.0° (Epoch: 26 November)

Event Time Altitude Azimuth Distance (km) Brightness Sun altitude
Exits shadow 12:32:06 17° 330° (NNW) 1,991 4.3 -20.3°
Maximum altitude 12:36:25 65° 252° (WSW) 921 2.6 -19.4°
Drops below altitude 10° 12:42:00 10° 172° (S) 2,454 5.3 -18.2°
Sets 12:44:26 0° 169° (S) 3,386 6.0 -17.7°
